Погода в Костяеве Большом

Россия / Ивановская область     57°15′40″N   42°43′39″E
темп.,
°C
ветер,
м/с
пор.,
м/с
влажн.,
%
обл.,
%
осадки,
мм/ч
давл.,
гПа
погр.,
м
13 апреля, вт
вт1300:00+4вюв31299100 0.0 1034371
03:00+4юв4109884 0.0 1032266
06:00+4юв39100100 0.0 1031235
09:00+6ююв3899100 0.0 1030227
12:00+12ююв4784100 0.0 1029358
15:00+16ююв4867100 0.0 10271094
18:00+12ююв377791 0.0 1026113
21:00+9ю3108054 0.0 1026124
14 апреля, ср
ср1400:00+8ю3127794 0.0 1026193
03:00+7ю310814 0.0 1026155
06:00+6ю388168 0.0 1025118
09:00+12ю486487 0.0 1025332
12:00+17ю575069 0.0 1023788
15:00+18ююв474761 0.0 10221230
18:00+14ююв366188 0.0 102193
21:00+10ю3469100 0.0 102155
15 апреля, чт
чт1500:00+9ююз2371100 0.0 102031
03:00+8ююз2274100 0.0 102013
06:00+7ю2275100 0.0 101910
09:00+12ююз0160100 0.0 1019215
12:00+16юв1148100 0.0 1019648
15:00+16св2248100 0.0 1018815
18:00+12ссв51070100 0.0 1020447
21:00+7св61284100 0.0 1022459
16 апреля, пт
пт1600:00+5св61287100 0.0 1022473
03:00+4св61284100 0.0 1023506
06:00+4св51286100 0.0 1024512
09:00+6всв51073100 0.0 1025629
12:00+9всв6857100 0.0 1025793
15:00+11всв574956 0.0 10251012
18:00+9всв495595 0.0 1026451
21:00+6всв4126068 0.0 1027296
17 апреля, сб
сб1700:00+4всв4117067 0.0 1028266
03:00+2св4107638 0.0 1029236
06:00+1св397762 0.0 1030217
09:00+6всв475546 0.0 1030444
12:00+10всв45405 0.0 10301090
15:00+12св45375 0.0 10291405
18:00+10ссв25485 0.0 1029134
21:00+6ссв36645 0.0 103093